User: anonymous   Login
Location: Iesi
(43.5167°N, 13.2333°E)
Time: 10:10:23
(UTC+00:00)
Language:

Cosmos 2034 Rocket - Orbit

View from above orbital plane
View from above orbital plane
View from above satellite
View from above satellite

Ground track
Ground track

The orbit data is extracted from the following two-line orbital elements,

1 20150U 89059B   20299.96275111 -.00000033 +00000-0 -50313-4 0  9997
2 20150 082.9379 263.9952 0030396 096.4484 321.3735 13.75639806568843
Epoch (UTC): 25 October 2020 23:06:21
Eccentricity: 0.0030396
inclination: 82.9379°
perigee height: 957 km
apogee height: 1002 km
right ascension of ascending node: 263.9952°
argument of perigee: 96.4484°
revolutions per day: 13.75639806
mean anomaly at epoch: 321.3735°
orbit number at epoch: 56884

The dashed part of the orbit path shows where the satellite is in the earth's shadow,  

DLR